This demonstration page uses our WeatherBlox Daily Observations layout. Learn more.

Left ArrowRight Arrow

44.89941, -97.11507

Hourly Observations for January 30, 2020

Temp ( °F °C ) Dew Point ( °F °C ) Humidity (%) Winds ( mph kmh ) Pressure ( in mb ) Visibility ( mi km ) Precip ( " mm )
12:11 am 00:11 Cloudy with Mist and Fog 23 -5 21 -6.1 92 92 SSE 9 15 30.16 1021 5 8 0.00 0.00
12:53 am 00:53 Cloudy with Mist and Fog 23 -5 22 -5.6 96 96 SSE 8 13 30.11 1020 3 4 0.00 0.00
1:28 am 01:28 Cloudy with Mist and Fog 23 -5 22 -5.6 96 96 SSE 7 11 30.14 1021 2 3 0.00 0.00
1:44 am 01:44 Cloudy with Mist and Fog 23 -5 22 -5.6 96 96 S 8 13 30.14 1021 1 2 0.00 0.00
1:53 am 01:53 Cloudy with Mist and Fog 23 -5 22 -5.6 96 96 S 9 15 30.10 1019 1 2 0.00 0.00
2:53 am 02:53 Cloudy with Mist and Fog 24 -4.4 23 -5 96 96 SSE 8 13 30.08 1019 1 2 0.00 0.00
3:53 am 03:53 Cloudy with Mist and Fog 24 -4.4 23 -5 96 96 SSE 6 9 30.06 1018 1 2 0.00 0.00
4:05 am 04:05 Cloudy with Mist and Fog 24 -4.4 24 -4.4 100 100 SSE 6 9 30.10 1019 1 1 0.00 0.00
4:53 am 04:53 Mostly Cloudy with Mist and Fog 24 -4.4 23 -5 96 96 SSE 8 13 30.05 1018 1 1 0.00 0.00
5:53 am 05:53 Cloudy with Mist and Fog 24 -4.4 23 -5 96 96 SSE 12 19 30.04 1017 1 1 0.00 0.00
6:53 am 06:53 Cloudy with Freezing Fog 24 -4.4 23 -5 96 96 SSE 10 17 30.03 1017 1 1 0.00 0.00
7:53 am 07:53 Mostly Cloudy with Freezing Fog 24 -4.4 24 -4.4 100 100 SSE 12 19 30.03 1017 1 1 0.00 0.00
8:05 am 08:05 Mostly Cloudy with Freezing Fog 25 -3.9 24 -4.4 96 96 SSE 10 17 30.06 1018 0 0 0.00 0.00
8:36 am 08:36 Cloudy with Freezing Fog 25 -3.9 24 -4.4 96 96 SSE 14 22 30.06 1018 1 1 0.00 0.00
8:53 am 08:53 Cloudy with Freezing Fog 25 -3.9 24 -4.4 96 96 SSE 13 20 30.02 1017 1 1 0.00 0.00
9:53 am 09:53 Cloudy with Mist and Fog 25 -3.9 24 -4.4 96 96 S 12 19 30.03 1017 1 1 0.00 0.00
10:53 am 10:53 Cloudy with Mist and Fog 26 -3.3 25 -3.9 96 96 SSE 13 20 30.01 1016 1 2 0.00 0.00
11:34 am 11:34 Cloudy with Mist and Fog 27 -2.8 26 -3.3 96 96 SE 12 19 30.03 1017 2 2 0.00 0.00
11:48 am 11:48 Cloudy with Mist and Fog 27 -3 27 -3 100 100 SSE 13 20 30.04 1017 1 2 0.00 0.00
11:53 am 11:53 Cloudy with Mist and Fog 27 -2.8 26 -3.3 96 96 SSE 10 17 30.00 1016 1 2 0.00 0.00
12:11 pm 12:11 Cloudy with Mist and Fog 28 -2.2 27 -2.8 96 96 SSE 12 19 30.02 1016 1 1 0.00 0.00
12:53 pm 12:53 Cloudy with Freezing Fog 28 -2.2 27 -2.8 96 96 SSE 10 17 29.99 1016 1 1 0.00 0.00
1:10 pm 13:10 Cloudy with Mist and Fog 29 -1.7 27 -2.8 92 92 SSE 10 17 30.00 1016 1 2 0.00 0.00
1:24 pm 13:24 Cloudy with Freezing Fog 29 -1.7 27 -2.8 92 92 SSE 10 17 30.00 1016 1 1 0.00 0.00
1:53 pm 13:53 Cloudy with Freezing Fog 29 -1.7 28 -2.2 96 96 S 8 13 29.98 1015 0 0 0.00 0.00
2:05 pm 14:05 Cloudy with Freezing Fog 29 -1.7 28 -2.2 96 96 S 8 13 30.00 1016 1 1 0.00 0.00
2:33 pm 14:33 Cloudy with Freezing Fog 29 -1.7 28 -2.2 96 96 SSE 8 13 29.98 1015 0 0 0.00 0.00
2:53 pm 14:53 Cloudy with Freezing Fog 30 -1.1 29 -1.7 96 96 SSE 10 17 29.96 1015 0 0 0.00 0.00
3:26 pm 15:26 Cloudy with Freezing Fog 30 -1.1 29 -1.7 96 96 SSE 12 19 29.98 1015 1 1 0.00 0.00
3:53 pm 15:53 Cloudy with Mist and Fog 30 -1.1 30 -1.1 100 100 S 12 19 29.97 1015 1 1 0.00 0.00
4:05 pm 16:05 Cloudy with Mist and Fog 30 -1.1 29 -1.7 96 96 SSW 9 15 30.00 1016 1 2 0.00 0.00
4:20 pm 16:20 Cloudy with Mist and Fog 30 -1.1 30 -1.1 100 100 S 8 13 29.99 1015 1 1 0.00 0.00
4:53 pm 16:53 Cloudy with Light Snow 31 -0.6 30 -1.1 96 96 SSE 9 15 29.96 1015 1 2 0.00 0.00
5:01 pm 17:01 Cloudy with Light Snow 31 -0.6 30 -1.1 96 96 S 8 13 29.98 1015 2 3 0.00 0.00
5:10 pm 17:10 Cloudy with Mist and Fog 31 -0.6 30 -1.1 96 96 S 9 15 29.98 1015 3 5 0.00 0.00
5:22 pm 17:22 Cloudy with Light Snow 31 -0.6 29 -1.7 92 92 S 9 15 29.97 1015 2 3 0.01 0.25
5:34 pm 17:34 Cloudy with Mist and Fog 30 -1.1 29 -1.7 96 96 S 12 19 29.99 1015 4 6 0.01 0.25
5:53 pm 17:53 Cloudy with Light Snow 30 -1.1 29 -1.7 96 96 S 10 17 29.98 1015 3 4 0.01 0.25
6:11 pm 18:11 Cloudy with Light Snow 30 -1.1 30 -1.1 100 100 S 12 19 30.00 1016 3 5 0.00 0.00
6:53 pm 18:53 Cloudy with Mist and Fog 31 -0.6 30 -1.1 96 96 S 7 11 29.98 1015 4 6 0.00 0.00
7:08 pm 19:08 Cloudy with Mist and Fog 31 -0.6 30 -1.1 96 96 SSW 7 11 30.00 1016 2 3 0.00 0.00
7:29 pm 19:29 Cloudy with Light Snow 31 -0.6 30 -1.1 96 96 S 7 11 29.99 1016 1 2 0.01 0.25
7:40 pm 19:40 Mostly Cloudy with Snow 31 -0.6 30 -1.1 96 96 S 13 20 29.99 1016 1 1 0.04 1.02
7:53 pm 19:53 Cloudy with Light Snow 31 -0.6 30 -1.1 96 96 S 16 26 29.97 1015 1 2 0.06 1.52
7:58 pm 19:58 Cloudy with Light Snow 31 -0.6 30 -1.1 96 96 S 16 26 29.98 1015 2 3 0.00 0.00
8:07 pm 20:07 Cloudy with Light Snow 31 -0.6 30 -1.1 96 96 S 13 20 29.99 1016 2 3 0.00 0.00
8:13 pm 20:13 Cloudy with Light Snow 31 -0.6 30 -1.1 96 96 S 9 15 29.99 1016 2 3 0.00 0.00
8:26 pm 20:26 Cloudy with Light Snow 31 -0.6 30 -1.1 96 96 S 12 19 29.99 1016 1 2 0.01 0.25
8:36 pm 20:36 Cloudy with Light Snow 31 -0.6 30 -1.1 96 96 S 12 19 29.99 1016 1 1 0.02 0.51
8:40 pm 20:40 Cloudy with Light Snow 31 -0.6 30 -1.1 96 96 S 10 17 29.99 1016 2 2 0.02 0.51
8:44 pm 20:44 Cloudy with Light Snow 31 -0.6 30 -1.1 96 96 S 9 15 29.99 1016 3 5 0.02 0.51
8:53 pm 20:53 Cloudy with Light Snow 31 -0.6 30 -1.1 96 96 S 8 13 29.97 1015 3 5 0.02 0.51
8:58 pm 20:58 Cloudy with Light Snow 31 -0.6 30 -1.1 96 96 S 10 17 29.99 1016 2 3 0.01 0.25
9:06 pm 21:06 Cloudy with Light Snow 31 -0.6 30 -1.1 96 96 S 13 20 29.98 1015 1 2 0.02 0.51
9:15 pm 21:15 Cloudy with Light Snow 31 -0.6 30 -1.1 96 96 S 13 20 29.98 1015 2 3 0.02 0.51
9:30 pm 21:30 Cloudy with Light Snow 31 -0.6 30 -1.1 96 96 S 13 20 29.98 1015 4 6 0.02 0.51
9:53 pm 21:53 Cloudy with Mist and Fog 31 -0.6 30 -1.1 96 96 S 10 17 29.97 1015 6 10 0.02 0.51
10:29 pm 22:29 Cloudy with Light Snow 31 -0.6 30 -1.1 96 96 S 8 13 29.98 1015 2 3 0.00 0.00
10:45 pm 22:45 Cloudy with Light Snow 31 -0.6 30 -1.1 96 96 S 9 15 29.98 1015 2 3 0.01 0.25
10:53 pm 22:53 Cloudy with Light Snow 31 -0.6 31 -0.6 100 100 S 7 11 29.96 1015 2 2 0.01 0.25
11:02 pm 23:02 Cloudy with Light Snow 31 -0.6 30 -1.1 96 96 S 8 13 29.98 1015 1 2 0.01 0.25
11:09 pm 23:09 Cloudy with Light Snow 31 -0.6 30 -1.1 96 96 S 8 13 29.98 1015 1 1 0.03 0.76
11:25 pm 23:25 Mostly Cloudy with Light Snow 31 -0.6 31 -0.6 100 100 S 6 9 29.98 1015 1 2 0.05 1.27
11:53 pm 23:53 Cloudy with Light Snow 31 -0.6 30 -1.1 96 96 S 6 9 29.96 1015 2 2 0.07 1.78

Powered by Vaisala Xweather